QPF
0.11 0.11 0.09 0.09 0.07 0.05 0.05 0.04 0.03 0.02 0.01 0.02 0.02 0.03 0.04 0.05 0.05 0.04 0.03 0.01 0.01 0.00 0.00 0.00 0.00 0.00 0.00 0.00 0.00 0.00 0.00 0.00 0.00 0.00 0.00 0.00 0.00 0.01
0.06 0.06 0.06 0.05 0.04 0.03 0.03 0.03 0.03 0.01 0.01 0.01 0.01 0.02 0.03 0.04 0.06 0.06 0.05 0.03 0.01 0.01 0.01 0.00 0.00 0.00 0.00 0.00 0.00 0.00 0.00 0.00 0.00 0.00 0.00 0.00 0.00 0.00
0.04 0.03 0.03 0.02 0.02 0.02 0.02 0.02 0.02 0.02 0.01 0.01 0.02 0.03 0.03 0.05 0.07 0.07 0.04 0.04 0.02 0.01 0.01 0.01 0.01 0.00 0.00 0.00 0.00 0.00 0.00 0.00 0.00 0.00 0.00 0.00 0.00 0.00
0.03 0.02 0.01 0.01 0.01 0.01 0.02 0.01 0.01 0.02 0.02 0.01 0.01 0.02 0.03 0.04 0.05 0.06 0.05 0.04 0.04 0.04 0.03 0.02 0.02 0.01 0.00 0.00 0.00 0.00 0.00 0.00 0.00 0.00 0.00 0.00 0.00 0.00
0.03 0.02 0.01 0.01 0.01 0.01 0.01 0.01 0.02 0.02 0.01 0.01 0.02 0.03 0.04 0.04 0.04 0.05 0.05 0.04 0.04 0.04 0.05 0.04 0.04 0.03 0.02 0.01 0.00 0.00 0.00 0.00 0.00 0.00 0.00 0.00 0.00 0.00
0.04 0.03 0.02 0.01 0.01 0.01 0.01 0.01 0.02 0.01 0.01 0.01 0.02 0.02 0.03 0.03 0.03 0.03 0.04 0.05 0.06 0.06 0.06 0.07 0.07 0.06 0.04 0.02 0.01 0.01 0.00 0.00 0.00 0.00 0.00 0.00 0.00 0.00
0.05 0.04 0.02 0.02 0.01 0.01 0.01 0.01 0.01 0.01 0.01 0.02 0.02 0.01 0.02 0.03 0.03 0.03 0.03 0.06 0.09 0.10 0.09 0.10 0.12 0.10 0.07 0.05 0.03 0.02 0.02 0.02 0.01 0.01 0.00 0.00 0.00 0.00
0.06 0.06 0.04 0.02 0.02 0.01 0.01 0.01 0.01 0.01 0.01 0.01 0.01 0.02 0.02 0.02 0.02 0.02 0.03 0.04 0.07 0.11 0.15 0.17 0.18 0.17 0.16 0.11 0.09 0.07 0.07 0.05 0.03 0.02 0.01 0.00 0.00 0.00
0.06 0.05 0.05 0.04 0.04 0.03 0.03 0.02 0.01 0.01 0.01 0.01 0.01 0.02 0.01 0.01 0.01 0.01 0.01 0.02 0.04 0.06 0.10 0.14 0.18 0.19 0.19 0.17 0.16 0.13 0.11 0.09 0.07 0.04 0.02 0.01 0.00 0.00
0.06 0.07 0.08 0.08 0.06 0.07 0.06 0.04 0.04 0.03 0.02 0.01 0.01 0.01 0.00 0.00 0.00 0.00 0.00 0.01 0.02 0.03 0.06 0.10 0.13 0.14 0.15 0.13 0.13 0.13 0.12 0.11 0.09 0.07 0.05 0.03 0.02 0.01
0.05 0.08 0.09 0.10 0.09 0.08 0.04 0.03 0.04 0.04 0.04 0.03 0.02 0.01 0.01 0.01 0.00 0.00 0.00 0.01 0.02 0.03 0.03 0.05 0.08 0.12 0.14 0.12 0.10 0.10 0.09 0.10 0.10 0.10 0.09 0.08 0.06 0.05
0.03 0.06 0.08 0.07 0.06 0.05 0.03 0.03 0.04 0.04 0.04 0.05 0.05 0.03 0.02 0.01 0.01 0.01 0.00 0.00 0.01 0.01 0.02 0.03 0.04 0.06 0.09 0.09 0.09 0.09 0.09 0.08 0.09 0.09 0.08 0.07 0.06 0.05
0.02 0.03 0.05 0.04 0.02 0.02 0.02 0.02 0.04 0.03 0.04 0.05 0.05 0.05 0.03 0.02 0.02 0.01 0.01 0.01 0.01 0.02 0.01 0.02 0.03 0.04 0.05 0.05 0.06 0.05 0.05 0.04 0.04 0.04 0.04 0.05 0.05 0.05
0.03 0.03 0.04 0.04 0.02 0.01 0.01 0.02 0.03 0.03 0.04 0.04 0.04 0.04 0.03 0.02 0.02 0.02 0.01 0.01 0.01 0.01 0.01 0.01 0.01 0.01 0.01 0.01 0.02 0.02 0.02 0.01 0.02 0.02 0.02 0.02 0.02 0.03
0.02 0.02 0.02 0.02 0.02 0.02 0.02 0.02 0.02 0.02 0.02 0.02 0.02 0.02 0.02 0.03 0.03 0.03 0.02 0.01 0.00 0.00 0.00 0.00 0.00 0.01 0.01 0.01 0.01 0.00 0.00 0.00 0.00 0.01 0.01 0.01 0.01 0.02
0.01 0.01 0.02 0.02 0.02 0.02 0.01 0.02 0.01 0.01 0.01 0.01 0.01 0.02 0.03 0.03 0.03 0.03 0.02 0.01 0.00 0.00 0.00 0.00 0.00 0.00 0.00 0.01 0.00 0.00 0.00 0.00 0.00 0.01 0.01 0.01 0.01 0.01
0.02 0.01 0.01 0.01 0.01 0.02 0.01 0.02 0.02 0.01 0.01 0.00 0.01 0.01 0.01 0.02 0.02 0.01 0.01 0.01 0.00 0.00 0.00 0.00 0.00 0.00 0.01 0.00 0.01 0.00 0.00 0.00 0.00 0.00 0.01 0.01 0.01 0.01
0.02 0.01 0.01 0.02 0.02 0.02 0.01 0.02 0.02 0.01 0.01 0.01 0.01 0.01 0.00 0.01 0.01 0.00 0.00 0.00 0.00 0.00 0.00 0.00 0.01 0.01 0.01 0.01 0.01 0.00 0.00 0.00 0.00 0.01 0.01 0.01 0.02 0.02
0.01 0.01 0.01 0.01 0.01 0.01 0.01 0.02 0.02 0.02 0.01 0.00 0.01 0.00 0.00 0.00 0.00 0.00 0.00 0.00 0.00 0.00 0.00 0.00 0.00 0.00 0.00 0.00 0.01 0.00 0.00 0.00 0.00 0.01 0.01 0.01 0.02 0.03
0.00 0.00 0.00 0.00 0.00 0.00 0.00 0.01 0.01 0.01 0.01 0.00 0.00 0.00 0.00 0.00 0.00 0.00 0.00 0.00 0.00 0.00 0.00 0.00 0.00 0.00 0.00 0.00 0.01 0.01 0.01 0.01 0.01 0.01 0.01 0.00 0.01 0.01
0.00 0.00 0.00 0.00 0.00 0.00 0.00 0.00 0.00 0.00 0.00 0.00 0.00 0.00 0.00 0.00 0.00 0.00 0.00 0.00 0.00 0.00 0.00 0.00 0.00 0.00 0.00 0.00 0.00 0.01 0.01 0.01 0.00 0.00 0.00 0.00 0.00 0.00
0.00 0.00 0.00 0.00 0.00 0.00 0.00 0.00 0.00 0.00 0.00 0.00 0.00 0.00 0.00 0.00 0.00 0.00 0.00 0.00 0.00 0.00 0.00 0.00 0.00 0.00 0.00 0.00 0.00 0.00 0.01 0.00 0.00 0.00 0.00 0.00 0.00 0.00
0.00 0.00 0.00 0.00 0.00 0.00 0.00 0.00 0.00 0.00 0.00 0.00 0.00 0.00 0.00 0.00 0.00 0.00 0.00 0.00 0.00 0.00 0.00 0.00 0.00 0.00 0.00 0.00 0.00 0.00 0.00 0.00 0.00 0.00 0.00 0.00 0.00 0.00
MSLP
1014.23 1014.52 1014.88 1015.26 1015.63 1015.93 1016.14 1016.24 1016.24 1016.17 1016.05 1015.92 1015.80 1015.72 1015.69 1015.69 1015.73 1015.81 1015.92 1016.06 1016.26 1016.51 1016.80 1017.13 1017.47 1017.77 1018.02 1018.18 1018.23 1018.18 1018.06 1017.91 1017.76 1017.67 1017.64 1017.69 1017.78 1017.87
1013.89 1014.15 1014.47 1014.83 1015.17 1015.47 1015.69 1015.82 1015.87 1015.85 1015.79 1015.71 1015.64 1015.59 1015.57 1015.57 1015.59 1015.63 1015.70 1015.81 1015.97 1016.19 1016.48 1016.81 1017.16 1017.51 1017.80 1018.01 1018.13 1018.14 1018.07 1017.95 1017.82 1017.73 1017.69 1017.71 1017.78 1017.86
1013.66 1013.89 1014.18 1014.50 1014.82 1015.10 1015.33 1015.48 1015.57 1015.61 1015.62 1015.61 1015.59 1015.59 1015.59 1015.59 1015.59 1015.60 1015.63 1015.68 1015.79 1015.96 1016.20 1016.50 1016.83 1017.18 1017.49 1017.75 1017.90 1017.97 1017.95 1017.87 1017.76 1017.67 1017.63 1017.63 1017.68 1017.75
1013.54 1013.75 1014.00 1014.29 1014.59 1014.85 1015.08 1015.26 1015.39 1015.48 1015.55 1015.60 1015.65 1015.69 1015.72 1015.74 1015.74 1015.72 1015.71 1015.70 1015.74 1015.84 1016.01 1016.24 1016.53 1016.85 1017.15 1017.41 1017.59 1017.70 1017.71 1017.67 1017.59 1017.52 1017.46 1017.45 1017.49 1017.55
1013.53 1013.71 1013.95 1014.21 1014.48 1014.73 1014.95 1015.14 1015.30 1015.43 1015.55 1015.66 1015.77 1015.86 1015.93 1015.98 1015.98 1015.96 1015.91 1015.86 1015.83 1015.85 1015.94 1016.09 1016.30 1016.55 1016.82 1017.06 1017.24 1017.36 1017.41 1017.40 1017.35 1017.28 1017.23 1017.21 1017.23 1017.28
1013.60 1013.77 1013.99 1014.22 1014.46 1014.69 1014.91 1015.09 1015.27 1015.43 1015.58 1015.74 1015.89 1016.03 1016.15 1016.23 1016.26 1016.24 1016.18 1016.10 1016.03 1015.98 1015.98 1016.05 1016.17 1016.35 1016.54 1016.74 1016.91 1017.02 1017.08 1017.09 1017.06 1017.01 1016.96 1016.94 1016.95 1016.99
1013.75 1013.90 1014.08 1014.29 1014.51 1014.71 1014.91 1015.08 1015.25 1015.41 1015.59 1015.77 1015.95 1016.14 1016.29 1016.42 1016.49 1016.50 1016.46 1016.38 1016.28 1016.19 1016.13 1016.11 1016.15 1016.24 1016.36 1016.49 1016.62 1016.71 1016.77 1016.79 1016.78 1016.74 1016.70 1016.68 1016.67 1016.69
1013.92 1014.05 1014.21 1014.39 1014.58 1014.76 1014.92 1015.07 1015.22 1015.37 1015.54 1015.72 1015.93 1016.14 1016.34 1016.51 1016.63 1016.69 1016.69 1016.64 1016.55 1016.44 1016.34 1016.26 1016.22 1016.22 1016.26 1016.33 1016.40 1016.46 1016.51 1016.53 1016.52 1016.50 1016.47 1016.44 1016.43 1016.42
1014.13 1014.23 1014.36 1014.51 1014.66 1014.80 1014.93 1015.05 1015.16 1015.29 1015.44 1015.61 1015.82 1016.04 1016.27 1016.48 1016.66 1016.79 1016.84 1016.84 1016.78 1016.68 1016.56 1016.45 1016.35 1016.29 1016.25 1016.25 1016.26 1016.29 1016.31 1016.33 1016.33 1016.32 1016.30 1016.27 1016.24 1016.21
1014.35 1014.41 1014.51 1014.63 1014.75 1014.86 1014.96 1015.04 1015.12 1015.21 1015.33 1015.48 1015.67 1015.89 1016.14 1016.39 1016.61 1016.80 1016.92 1016.98 1016.97 1016.90 1016.79 1016.66 1016.52 1016.40 1016.31 1016.24 1016.20 1016.19 1016.19 1016.20 1016.20 1016.20 1016.19 1016.16 1016.12 1016.07
1014.60 1014.63 1014.69 1014.78 1014.87 1014.96 1015.03 1015.08 1015.13 1015.19 1015.27 1015.39 1015.56 1015.77 1016.02 1016.29 1016.55 1016.78 1016.96 1017.07 1017.11 1017.07 1016.99 1016.86 1016.71 1016.55 1016.41 1016.30 1016.22 1016.17 1016.15 1016.15 1016.16 1016.17 1016.16 1016.14 1016.10 1016.02
1014.90 1014.89 1014.92 1014.99 1015.06 1015.13 1015.18 1015.21 1015.24 1015.27 1015.33 1015.42 1015.56 1015.76 1015.99 1016.26 1016.53 1016.79 1017.00 1017.15 1017.22 1017.23 1017.16 1017.05 1016.90 1016.73 1016.57 1016.43 1016.32 1016.25 1016.22 1016.21 1016.22 1016.24 1016.25 1016.23 1016.19 1016.10
1015.26 1015.22 1015.23 1015.27 1015.33 1015.39 1015.43 1015.46 1015.48 1015.50 1015.54 1015.61 1015.73 1015.90 1016.11 1016.35 1016.61 1016.86 1017.08 1017.25 1017.35 1017.38 1017.34 1017.24 1017.10 1016.94 1016.78 1016.63 1016.52 1016.44 1016.40 1016.39 1016.41 1016.43 1016.45 1016.45 1016.41 1016.33
1015.70 1015.64 1015.63 1015.66 1015.71 1015.77 1015.81 1015.84 1015.87 1015.89 1015.92 1015.98 1016.07 1016.21 1016.39 1016.59 1016.82 1017.04 1017.24 1017.40 1017.50 1017.54 1017.53 1017.46 1017.34 1017.21 1017.07 1016.94 1016.83 1016.76 1016.72 1016.72 1016.74 1016.77 1016.80 1016.81 1016.77 1016.69
1016.24 1016.16 1016.14 1016.16 1016.20 1016.25 1016.31 1016.35 1016.38 1016.41 1016.45 1016.50 1016.57 1016.67 1016.81 1016.97 1017.14 1017.31 1017.47 1017.61 1017.70 1017.75 1017.75 1017.71 1017.63 1017.54 1017.44 1017.34 1017.27 1017.22 1017.19 1017.20 1017.22 1017.25 1017.28 1017.28 1017.26 1017.18
1016.89 1016.80 1016.76 1016.76 1016.79 1016.84 1016.89 1016.95 1016.99 1017.03 1017.07 1017.11 1017.17 1017.24 1017.33 1017.44 1017.55 1017.67 1017.78 1017.87 1017.95 1017.99 1018.01 1018.01 1017.98 1017.94 1017.89 1017.85 1017.82 1017.80 1017.80 1017.81 1017.83 1017.85 1017.87 1017.86 1017.82 1017.74
1017.64 1017.54 1017.48 1017.47 1017.48 1017.51 1017.56 1017.60 1017.65 1017.70 1017.74 1017.78 1017.82 1017.86 1017.91 1017.96 1018.02 1018.08 1018.14 1018.19 1018.24 1018.29 1018.33 1018.36 1018.39 1018.41 1018.43 1018.45 1018.47 1018.48 1018.50 1018.52 1018.53 1018.53 1018.51 1018.47 1018.41 1018.31
1018.46 1018.36 1018.29 1018.25 1018.23 1018.24 1018.26 1018.29 1018.33 1018.37 1018.40 1018.43 1018.46 1018.47 1018.48 1018.49 1018.50 1018.51 1018.52 1018.55 1018.58 1018.63 1018.69 1018.76 1018.84 1018.93 1019.01 1019.09 1019.16 1019.22 1019.25 1019.26 1019.25 1019.22 1019.16 1019.08 1018.97 1018.83
1019.32 1019.22 1019.14 1019.07 1019.03 1019.00 1018.98 1018.99 1019.00 1019.01 1019.03 1019.05 1019.06 1019.05 1019.03 1019.01 1018.98 1018.95 1018.93 1018.93 1018.96 1019.01 1019.09 1019.19 1019.32 1019.47 1019.61 1019.74 1019.85 1019.93 1019.98 1019.98 1019.94 1019.87 1019.76 1019.62 1019.46 1019.27
1020.15 1020.07 1019.98 1019.89 1019.81 1019.74 1019.69 1019.65 1019.63 1019.62 1019.62 1019.61 1019.60 1019.58 1019.54 1019.50 1019.45 1019.40 1019.36 1019.35 1019.36 1019.42 1019.52 1019.65 1019.82 1020.00 1020.18 1020.35 1020.49 1020.59 1020.63 1020.62 1020.56 1020.44 1020.28 1020.09 1019.87 1019.63
1020.91 1020.85 1020.76 1020.66 1020.55 1020.44 1020.35 1020.27 1020.21 1020.17 1020.14 1020.11 1020.09 1020.05 1020.01 1019.96 1019.90 1019.84 1019.80 1019.78 1019.80 1019.86 1019.97 1020.12 1020.30 1020.51 1020.71 1020.90 1021.05 1021.15 1021.19 1021.16 1021.07 1020.92 1020.72 1020.48 1020.21 1019.93
1021.54 1021.50 1021.43 1021.32 1021.19 1021.05 1020.92 1020.80 1020.71 1020.63 1020.58 1020.54 1020.51 1020.47 1020.43 1020.38 1020.33 1020.28 1020.24 1020.23 1020.25 1020.32 1020.43 1020.58 1020.76 1020.97 1021.17 1021.35 1021.50 1021.60 1021.63 1021.59 1021.49 1021.32 1021.10 1020.83 1020.54 1020.23
1021.98 1021.98 1021.92 1021.81 1021.68 1021.52 1021.37 1021.23 1021.11 1021.01 1020.94 1020.89 1020.85 1020.82 1020.79 1020.75 1020.72 1020.69 1020.67 1020.67 1020.70 1020.77 1020.87 1021.02 1021.19 1021.37 1021.56 1021.73 1021.87 1021.95 1021.97 1021.93 1021.83 1021.66 1021.44 1021.18 1020.89 1020.58
Thickness
5695 5695 5694 5696 5696 5696 5695 5693 5687 5683 5685 5692 5696 5702 5702 5701 5700 5697 5695 5693 5691 5689 5688 5686 5685 5684 5684 5684 5684 5685 5685 5686 5687 5688 5689 5690 5692 5693
5689 5689 5690 5691 5692 5691 5691 5690 5689 5685 5682 5687 5691 5694 5696 5696 5695 5693 5691 5688 5686 5685 5683 5682 5681 5680 5679 5679 5679 5679 5679 5680 5680 5681 5683 5684 5685 5686
5683 5684 5684 5685 5685 5686 5686 5686 5685 5684 5680 5682 5685 5688 5689 5689 5689 5688 5686 5684 5682 5681 5679 5677 5676 5675 5674 5674 5674 5673 5674 5674 5675 5675 5677 5678 5679 5680
5678 5678 5678 5680 5679 5680 5680 5680 5681 5681 5678 5676 5678 5680 5681 5682 5682 5681 5681 5679 5678 5677 5676 5674 5672 5671 5670 5670 5669 5669 5669 5669 5669 5670 5671 5672 5673 5674
5673 5673 5673 5673 5673 5674 5674 5675 5676 5676 5674 5672 5671 5672 5673 5675 5674 5674 5675 5674 5674 5673 5672 5670 5669 5667 5666 5666 5665 5664 5664 5664 5665 5665 5666 5666 5667 5668
5668 5669 5669 5669 5668 5669 5669 5669 5670 5668 5667 5666 5664 5664 5665 5666 5666 5666 5666 5667 5667 5668 5667 5666 5665 5663 5662 5661 5661 5660 5660 5660 5660 5661 5661 5662 5662 5663
5662 5663 5664 5664 5665 5664 5664 5663 5663 5661 5659 5658 5657 5656 5657 5657 5658 5658 5658 5658 5659 5660 5660 5660 5659 5658 5657 5657 5656 5657 5657 5657 5657 5657 5657 5658 5658 5658
5656 5656 5657 5658 5659 5660 5660 5659 5658 5655 5653 5651 5650 5650 5650 5651 5651 5651 5651 5650 5650 5653 5652 5652 5653 5652 5652 5652 5652 5652 5653 5653 5653 5653 5654 5654 5654 5654
5649 5649 5651 5652 5652 5652 5652 5652 5652 5651 5651 5648 5645 5645 5646 5646 5646 5645 5645 5644 5644 5646 5645 5645 5646 5646 5647 5647 5647 5648 5648 5649 5649 5649 5649 5649 5649 5649
5642 5643 5643 5643 5645 5645 5644 5644 5643 5644 5644 5643 5643 5642 5643 5643 5642 5641 5640 5639 5639 5639 5639 5638 5639 5639 5640 5641 5642 5642 5643 5643 5643 5644 5644 5644 5644 5643
5635 5635 5636 5637 5639 5639 5638 5636 5636 5636 5638 5638 5638 5638 5638 5638 5637 5636 5634 5633 5631 5632 5633 5632 5631 5632 5634 5635 5635 5636 5636 5636 5637 5637 5637 5637 5637 5637
5627 5628 5629 5631 5632 5633 5632 5630 5629 5629 5631 5631 5630 5631 5631 5631 5631 5630 5629 5627 5625 5625 5626 5626 5625 5625 5626 5627 5628 5628 5628 5628 5629 5629 5629 5629 5629 5629
5619 5620 5621 5624 5625 5626 5626 5625 5625 5625 5624 5624 5623 5623 5623 5624 5624 5624 5624 5623 5621 5620 5621 5621 5620 5619 5619 5618 5619 5620 5620 5620 5620 5620 5621 5621 5620 5620
5612 5613 5614 5616 5618 5618 5619 5619 5620 5619 5618 5616 5616 5615 5616 5616 5617 5618 5618 5618 5618 5616 5616 5617 5615 5614 5612 5611 5610 5611 5611 5611 5611 5611 5611 5612 5611 5610
5607 5608 5609 5609 5610 5610 5611 5612 5612 5611 5610 5609 5608 5608 5609 5610 5611 5612 5612 5612 5612 5611 5611 5611 5610 5608 5607 5605 5603 5602 5602 5602 5602 5602 5602 5601 5600 5599
5602 5602 5602 5602 5603 5603 5603 5603 5604 5604 5603 5602 5601 5602 5604 5604 5604 5605 5605 5605 5604 5604 5605 5605 5605 5603 5600 5598 5596 5594 5593 5592 5591 5592 5591 5590 5588 5586
5598 5598 5597 5596 5596 5595 5595 5596 5596 5597 5596 5596 5596 5596 5597 5597 5598 5599 5598 5598 5597 5596 5596 5597 5597 5596 5593 5591 5587 5585 5584 5583 5582 5582 5581 5579 5576 5573
5596 5593 5591 5590 5590 5589 5589 5589 5589 5589 5589 5590 5590 5590 5590 5591 5592 5592 5593 5592 5591 5590 5589 5589 5589 5588 5585 5581 5578 5577 5576 5575 5574 5573 5571 5569 5565 5561
5592 5589 5587 5586 5585 5584 5584 5584 5583 5583 5584 5585 5585 5585 5586 5586 5586 5586 5587 5586 5586 5585 5584 5583 5583 5581 5578 5574 5570 5568 5567 5566 5566 5564 5561 5559 5556 5551
5589 5586 5585 5584 5583 5582 5582 5581 5581 5581 5581 5581 5581 5582 5582 5582 5582 5582 5582 5582 5581 5580 5580 5579 5578 5576 5574 5570 5566 5562 5561 5560 5558 5555 5552 5550 5547 5543
5587 5586 5585 5584 5583 5582 5582 5581 5580 5580 5580 5580 5580 5580 5580 5580 5580 5579 5579 5580 5578 5577 5576 5575 5574 5575 5572 5568 5562 5558 5556 5554 5552 5549 5546 5543 5540 5536
5589 5587 5586 5586 5585 5584 5583 5582 5581 5580 5580 5580 5580 5579 5579 5579 5579 5578 5578 5577 5575 5575 5574 5572 5573 5572 5568 5563 5557 5554 5551 5550 5548 5545 5542 5539 5533 5529
5591 5590 5588 5587 5586 5585 5584 5583 5583 5581 5581 5580 5580 5580 5579 5579 5578 5578 5577 5576 5575 5573 5572 5570 5568 5566 5562 5558 5554 5550 5548 5545 5542 5540 5537 5534 5530 5526